User: anonymous   Login
Location: Anjeux
(47.8815°N, 6.2076°E)
Time: 04:31:05
(UTC+00:00)
Language:

AO-91 - Orbit

View from above orbital plane
View from above orbital plane
View from above satellite
View from above satellite

Ground track
Ground track

The orbit data is extracted from the following two-line orbital elements,

1 43017U 17073E   21338.67078660  .00001220  00000-0  97329-4 0  9999
2 43017  97.6924 235.7915 0254852 104.6690 258.2920 14.79987864218291
Epoch (UTC): 04 December 2021 16:05:55
Eccentricity: 0.0254852
inclination: 97.6924°
perigee height: 451 km
apogee height: 808 km
right ascension of ascending node: 235.7915°
argument of perigee: 104.6690°
revolutions per day: 14.79987864
mean anomaly at epoch: 258.2920°
orbit number at epoch: 21829

The dashed part of the orbit path shows where the satellite is in the earth's shadow,  

DLR